Regional Weather Roundup
Issued by NWS

Home | Current Version | Previous Version | Text Only | Print | Product List | Glossary Off
Versions: 1 2 3 4 5 6 7 8 9 10 11 12 13 14 15 16 17 18 19 20 21 22 23 24 25 26 27 28 29 30 31 32 33 34 35 36 37 38 39 40 41 42 43 44 45 46 47 48 49 50

000
ASUS43 KMKX 281300
RWRWI

WISCONSIN REGIONAL WEATHER ROUNDUP
NATIONAL WEATHER SERVICE MILWAUKEE/SULLIVAN WI
800 AM CDT THU AUG 28 2014

NOTE: "FAIR" INDICATES FEW OR NO CLOUDS BELOW 12,000 FEET WITH NO
SIGNIFICANT WEATHER AND/OR OBSTRUCTIONS TO VISIBILITY.

WIZ001-002-006>008-014>016-023>028-281400-
NORTHWEST WISCONSIN

CITY           SKY/WX    TMP DP  RH WIND       PRES   REMARKS
SUPERIOR ARPT  FOG       50  50 100 CALM      30.12S VSB<1/4
ASHLAND        SUNNY     54  51  90 CALM      30.14S
HAYWARD        SUNNY     56  49  77 CALM      30.14S
SIREN          SUNNY     56  52  87 CALM      30.11F
RICE LAKE      SUNNY     56  49  78 E3        30.15R
LADYSMITH      SUNNY     53  48  83 E5        30.16R
EAU CLAIRE     NOT AVBL
MENOMONIE      SUNNY     56  51  85 N3        30.12S
NEW RICHMOND   MOSUNNY   58  52  80 E6        30.11S
OSCEOLA        MOSUNNY   59  55  84 E7        30.13S
$$

WIZ003>005-009-010-017-018-281400-
NORTH CENTRAL WISCONSIN

CITY           SKY/WX    TMP DP  RH WIND       PRES   REMARKS
WOODRUFF       SUNNY     53  50  92 CALM      30.16F
RHINELANDER    SUNNY     51  49  92 CALM      30.18R
EAGLE RIVER    SUNNY     48  48 100 CALM      30.16F
LAND O LAKES   SUNNY     48  48 100 CALM      30.18S
PHILLIPS       SUNNY     54  49  84 SE3       30.15R
TOMAHAWK       SUNNY     45  44  97 CALM      30.16F
MEDFORD        SUNNY     51  49  93 E3        30.15S
MERRILL        SUNNY     49  49  98 CALM      30.15F
$$

WIZ029-030-035-036-043>047-281400-
CENTRAL WISCONSIN

CITY           SKY/WX    TMP DP  RH WIND       PRES   REMARKS
WAUSAU         CLOUDY    52  51  97 E7        30.15R FOG
MOSINEE        NOT AVBL
MARSHFIELD     SUNNY     57  53  86 E7        30.14R
STEVENS POINT  FOG       53  53 100 CALM      30.16S VSB 1/4
WAUPACA        PTSUNNY   62  61  96 CALM      30.16S
WAUTOMA        NOT AVBL
WISC RAPIDS    FOG       56  55  97 E3        30.16R VSB 1/4
CAMP DOUGLAS   NOT AVBL
$$

WIZ011>013-019>022-031-037>040-048>050-281400-
NORTHEAST WISCONSIN

CITY           SKY/WX    TMP DP  RH WIND       PRES   REMARKS
ANTIGO         FOG       53  53 100 E3        30.17S VSB<1/4
STURGEON BAY   CLOUDY    61  54  77 SE3       30.18R
GREEN BAY      MOSUNNY   61  58  90 SE5       30.16S
MANITOWOC      NOT AVBL
APPLETON       PTSUNNY   64  55  72 S8        30.16R
CLINTONVILLE   CLOUDY    59  55  88 CALM      30.15S
OSHKOSH        PTSUNNY   63  59  87 S5        30.15R
$$

WIZ032>034-041-042-053>061-281400-
SOUTHWEST WISCONSIN

CITY           SKY/WX    TMP DP  RH WIND       PRES   REMARKS
LA CROSSE      MOSUNNY   62  58  86 E6        30.11R
SPARTA         SUNNY     58  56  91 CALM      30.12S
VIROQUA        CLOUDY    58  58 100 SE6       30.13S VSB 1/4
BOSCOBEL       PTSUNNY   63  61  93 VRB3      30.13R FOG
PRAIRIE DU CHI SUNNY     62  60  93 SE3       30.10S
PLATTEVILLE    FAIR      63  62  97 CALM      30.12F
$$

WIZ056-057-062-063-064-067-068-281400-
SOUTH CENTRAL WISCONSIN

CITY           SKY/WX    TMP DP  RH WIND       PRES   REMARKS
BARABOO/DELLS  SUNNY     62  60  94 CALM      30.14S
LONE ROCK      PTSUNNY   64  61  88 E7        30.13S FOG
WATERTOWN      SUNNY     59  59 100 CALM      30.15R
MADISON        MOSUNNY   64  58  80 SE7       30.14S
MIDDLETON      FAIR      64  63  97 SE7       30.15R
MONROE         SUNNY     61  59  94 E6        30.13F
JANESVILLE     SUNNY     64  61  88 E7        30.14R
$$

WIZ051-052-058>065-066-070>072-281400-
SOUTHEAST WISCONSIN

CITY           SKY/WX    TMP DP  RH WIND       PRES   REMARKS
MILWAUKEE      MOSUNNY   66  56  70 SE12      30.16R
WAUKESHA       SUNNY     61  57  88 SE6       30.17S
MILWAUKEE/TIMM SUNNY     63  55  77 SE6       30.17R
RACINE         SUNNY     67  55  65 SE13      30.17S
BURLINGTON     SUNNY     57  57 100 CALM      30.15S
KENOSHA        SUNNY     66  57  72 E10       30.16S
FOND DU LAC    SUNNY     62  56  80 MISG      30.15S
SHEBOYGAN      SUNNY     62  58  86 CALM      30.16S
WEST BEND      SUNNY     55  54  94 CALM      30.17R
JUNEAU         SUNNY     59  57  92 E3        30.16S
$$

LSZ147-162-281400-
LAKE SUPERIOR

STATION/POSITION TIME  TEMP    WIND        PRES    WAVE
                       AIR SEA DIR/SP/G            HT/PER
                 (UTC) (F)     (DEG/KT/KT) (MB)    (FT/S)
W MID LAKE BUOY  1150   57 56  140/  6/  6 1020.4F   1
DEVILS ISLAND    1200   58     200/  7/  9 1020.5S
PORT WING        1200   54     140/  2/  4 1020.3S
SAXON HARBOR     1200   55     200/  5/  9 1020.3S
$$

LMZ867-665-643>646-281400-
LAKE MICHIGAN

STATION/POSITION TIME  TEMP    WIND        PRES    WAVE
                       AIR SEA DIR/SP/G            HT/PER
                 (UTC) (F)     (DEG/KT/KT) (MB)    (FT/S)
N MID LAKE BUOY  1150   63 65   CALM  /  2 1022.1R   0
NORTHPORT PIER   1200   62     170/  3/  5 1021.7S
SISTER BAY       1111   59        CALM       N/A
KEWAUNEE LAKESHO 1200   64     140/  7/ 10 1020.5S
SHEBOYGAN LAKESH 1200   64 68  130/ 11/ 13 1021.3R
ATWATER BUOY     1200   67     130/ 14/ 16 1021.8R
MILWAUKEE LAKESH 1200   66     120/ 13/ 15   N/A
S MID LAKE BUOY  1150   65 69  100/ 14/ 16 1021.0R   2/ 3
KENOSHA   LAKESH 1200   68     110/ 14/ 16 1020.7R
$$

TC  - TEMPERATURE IN CELSIUS
VSB - VISIBILITY IN STATUTE MILES
WCI - WIND CHILL INDEX
HX  - HEAT INDEX




USA.gov is the U.S. government's official web portal to all federal, state and local government web resources and services.